IT9NKT-WX Weather Reports


time (UTC)temp
C
wind
direction
speed
KPH
gust
KPH
rain 1hr
cm
rain 24hr
cm
rain mn
cm
humidity
%
barometer
mb
20260508015004 16 174 0.0 1.6 0.00 0.00 0.00 87 1010.6
20260508014504 16 197 0.0 1.6 0.00 0.00 0.00 86 1010.7
20260508014004 16 194 0.0 1.6 0.00 0.00 0.00 86 1010.7
20260508013714 17 194 0.0 1.6 0.00 0.00 0.00 86 1010.5
20260508013003 17 148 0.0 3.2 0.00 0.00 0.00 86 1010.4
20260508012504 17 137 0.0 3.2 0.00 0.00 0.00 86 1010.6
20260508012003 17 119 0.0 1.6 0.00 0.00 0.00 85 1010.6
20260508011503 17 22 0.0 4.8 0.00 0.00 0.00 84 1010.6
20260508011003 17 351 0.0 4.8 0.00 0.00 0.00 83 1010.6
20260508010503 17 1 1.6 6.4 0.00 0.00 0.00 83 1010.7
20260508010004 17 11 1.6 6.4 0.00 0.00 0.00 83 1010.8
20260508005713 17 13 1.6 6.4 0.00 0.00 0.00 83 1010.9
20260508005004 17 348 0.0 3.2 0.00 0.00 0.00 83 1011.0
20260508004504 17 188 0.0 1.6 0.00 0.00 0.00 83 1011.2
20260508004003 17 186 0.0 1.6 0.00 0.00 0.00 82 1011.3
20260508003504 17 192 0.0 1.6 0.00 0.00 0.00 82 1011.3
20260508003003 17 239 1.6 9.7 0.00 0.00 0.00 82 1011.1
20260508002503 17 262 1.6 9.7 0.00 0.00 0.00 83 1011.1
20260508002003 17 311 1.6 4.8 0.00 0.00 0.00 83 1011.5
20260508001503 17 336 1.6 4.8 0.00 0.00 0.00 83 1011.5
20260508001003 17 316 0.0 3.2 0.00 0.00 0.00 83 1011.7
20260508000504 17 133 0.0 1.6 0.00 0.00 0.00 82 1011.9
20260508000003 17 167 0.0 0.0 0.00 0.00 0.00 82 1012.1
20260507235504 17 177 0.0 1.6 0.00 0.00 0.00 82 1012.0
20260507235003 17 172 0.0 3.2 0.00 0.00 0.00 82 1012.0
20260507234504 17 163 0.0 3.2 0.00 0.00 0.00 82 1012.2
20260507234004 17 160 0.0 1.6 0.00 0.00 0.00 82 1012.1
20260507233503 17 176 0.0 1.6 0.00 0.00 0.00 82 1012.4
20260507233004 17 181 0.0 1.6 0.00 0.00 0.00 82 1012.1
20260507232504 17 209 0.0 4.8 0.00 0.00 0.00 83 1012.2
20260507232214 17 339 0.0 4.8 0.00 0.00 0.00 83 1012.2
20260507231717 17 6 0.0 4.8 0.00 0.00 0.00 83 1012.2
20260507230504 17 280 0.0 1.6 0.00 0.00 0.00 84 1012.6
20260507230003 17 208 0.0 1.6 0.00 0.00 0.00 84 1012.9
20260507225503 17 299 0.0 4.8 0.00 0.00 0.00 85 1013.4
20260507225213 17 322 0.0 4.8 0.00 0.00 0.00 85 1013.0
20260507224716 17 292 0.0 4.8 0.00 0.00 0.00 85 1012.8
20260507224004 17 0 0.0 0.0 0.00 0.00 0.00 85 1012.9
20260507223503 17 200 0.0 1.6 0.00 0.00 0.00 84 1013.2
20260507223003 17 198 1.6 1.6 0.00 0.00 0.00 84 1013.0
20260507222503 17 197 1.6 3.2 0.00 0.00 0.00 84 1012.9
20260507222004 17 202 0.0 3.2 0.00 0.00 0.00 84 1012.6
20260507221503 17 290 0.0 3.2 0.00 0.00 0.00 84 1012.6
20260507221217 17 2 1.6 11.3 0.00 0.00 0.00 84 1012.4
20260507220714 17 18 1.6 11.3 0.00 0.00 0.00 83 1012.3
20260507220007 17 42 1.6 3.2 0.00 0.00 0.00 83 1011.7
20260507215503 17 24 1.6 9.7 0.00 0.00 0.00 83 1012.0
20260507215213 17 20 1.6 9.7 0.00 0.00 0.00 83 1012.1
20260507214504 17 47 1.6 6.4 0.00 0.00 0.00 83 1012.1
20260507214003 17 58 1.6 6.4 0.00 0.00 0.00 83 1011.9
20260507213717 17 58 1.6 3.2 0.00 0.00 0.00 83 1012.0
20260507213003 17 22 1.6 11.3 0.00 0.00 0.00 83 1012.1
20260507212713 17 22 1.6 11.3 0.00 0.00 0.00 83 1012.0
20260507212003 17 26 1.6 4.8 0.00 0.00 0.00 83 1011.9
20260507211503 17 49 1.6 3.2 0.00 0.00 0.00 83 1011.8
20260507211004 17 39 1.6 4.8 0.00 0.00 0.00 83 1011.8
20260507210504 17 23 3.2 6.4 0.00 0.00 0.00 83 1011.8
20260507210213 17 40 1.6 6.4 0.00 0.00 0.00 83 1012.0
20260507205503 17 58 3.2 11.3 0.00 0.00 0.00 83 1011.9
20260507205003 17 44 3.2 11.3 0.00 0.00 0.00 83 1011.6
20260507204505 17 36 3.2 9.7 0.00 0.00 0.00 82 1011.7
20260507204003 17 39 3.2 12.9 0.00 0.00 0.00 82 1011.9
20260507203504 17 51 3.2 12.9 0.00 0.00 0.00 82 1012.2
20260507203004 17 54 1.6 11.3 0.00 0.00 0.00 82 1012.1
20260507202503 18 40 1.6 4.8 0.00 0.00 0.00 82 1012.4
20260507202004 18 63 3.2 17.7 0.00 0.00 0.00 82 1012.5
20260507201715 17 75 3.2 17.7 0.00 0.00 0.00 82 1012.5
20260507201004 18 74 3.2 12.9 0.00 0.00 0.00 82 1012.4
20260507200503 18 85 3.2 11.3 0.00 0.00 0.00 82 1012.4
20260507200004 18 86 3.2 11.3 0.00 0.00 0.00 82 1012.2
20260507195504 18 67 3.2 14.5 0.00 0.00 0.00 81 1012.0
20260507195215 18 66 3.2 14.5 0.00 0.00 0.00 81 1011.7
20260507194504 18 40 3.2 9.7 0.00 0.00 0.00 81 1011.5
20260507194003 18 33 3.2 16.1 0.00 0.00 0.00 81 1011.4
20260507193503 18 53 3.2 16.1 0.00 0.00 0.00 81 1011.5
20260507193004 18 62 3.2 12.9 0.00 0.00 0.00 81 1011.7
20260507192714 18 56 3.2 8.0 0.00 0.00 0.00 81 1011.6
20260507192004 18 43 3.2 20.9 0.00 0.00 0.00 81 1011.3
20260507191503 18 47 1.6 6.4 0.00 0.00 0.00 81 1011.4
20260507191003 18 45 1.6 11.3 0.00 0.00 0.00 81 1011.3
20260507190504 18 69 3.2 11.3 0.00 0.00 0.00 81 1011.5
20260507190005 18 74 3.2 9.7 0.00 0.00 0.00 81 1011.5
20260507185717 18 79 3.2 16.1 0.00 0.00 0.00 81 1011.5
20260507185003 18 76 4.8 16.1 0.00 0.00 0.00 81 1011.3
20260507184713 18 55 4.8 9.7 0.00 0.00 0.00 81 1011.5
20260507184216 18 42 4.8 20.9 0.00 0.00 0.00 81 1011.5
20260507183504 18 50 4.8 17.7 0.00 0.00 0.00 81 1011.6
20260507183005 18 48 4.8 24.1 0.00 0.00 0.00 81 1011.4
20260507182504 18 55 6.4 24.1 0.00 0.00 0.00 81 1011.1
20260507182213 18 40 6.4 24.1 0.00 0.00 0.00 81 1011.2
20260507181504 18 49 4.8 16.1 0.00 0.00 0.00 81 1011.0
20260507181003 18 52 4.8 16.1 0.00 0.00 0.00 81 1010.8
20260507180504 18 51 4.8 14.5 0.00 0.00 0.00 81 1011.1
20260507180003 18 53 4.8 11.3 0.00 0.00 0.00 81 1011.2
20260507175504 18 46 6.4 17.7 0.00 0.00 0.00 81 1011.1
20260507175216 18 50 6.4 17.7 0.00 0.00 0.00 81 1011.3
20260507174504 18 58 6.4 22.5 0.00 0.00 0.00 80 1011.0
20260507174217 18 59 6.4 22.5 0.00 0.00 0.00 80 1010.8
20260507173504 18 64 6.4 24.1 0.00 0.00 0.00 80 1010.7
20260507173004 18 53 6.4 24.1 0.00 0.00 0.00 80 1010.5
20260507172503 18 51 6.4 16.1 0.00 0.00 0.00 80 1010.7
20260507172003 18 56 4.8 11.3 0.00 0.00 0.00 80 1010.9
20260507171504 18 42 6.4 24.1 0.00 0.00 0.00 80 1011.1
20260507171214 18 49 6.4 24.1 0.00 0.00 0.00 81 1010.9
20260507170503 18 59 6.4 25.7 0.00 0.00 0.00 80 1011.0
20260507170003 18 53 6.4 25.7 0.00 0.00 0.00 80 1011.1
20260507165503 18 56 6.4 20.9 0.00 0.00 0.00 80 1010.9
20260507165004 18 47 6.4 20.9 0.00 0.00 0.00 80 1011.4
20260507164714 18 43 6.4 20.9 0.00 0.00 0.00 80 1011.6
20260507164004 18 38 4.8 20.9 0.00 0.00 0.00 80 1011.4
20260507163503 18 39 6.4 20.9 0.00 0.00 0.00 80 1011.5
20260507163003 18 52 6.4 17.7 0.00 0.00 0.00 80 1011.2
20260507162716 18 52 6.4 25.7 0.00 0.00 0.00 79 1011.3
20260507162004 18 48 8.0 25.7 0.00 0.00 0.00 79 1011.0
20260507161717 18 53 8.0 33.8 0.00 0.00 0.00 80 1010.8
20260507161003 18 53 8.0 33.8 0.00 0.00 0.00 79 1011.1
20260507160503 18 64 8.0 29.0 0.00 0.00 0.00 79 1010.7
20260507160004 18 77 6.4 25.7 0.00 0.00 0.00 79 1010.9
20260507155504 18 79 8.0 25.7 0.00 0.00 0.00 80 1011.2
20260507155217 18 78 8.0 25.7 0.00 0.00 0.00 79 1011.2
20260507154503 18 48 8.0 17.7 0.00 0.00 0.00 79 1011.0
20260507154005 18 52 8.0 29.0 0.00 0.00 0.00 79 1011.1
20260507153504 18 62 8.0 29.0 0.00 0.00 0.00 79 1011.2
20260507153003 18 68 8.0 25.7 0.00 0.00 0.00 78 1011.2
20260507152717 18 65 6.4 16.1 0.00 0.00 0.00 78 1011.5
20260507152215 18 50 6.4 25.7 0.00 0.00 0.00 78 1011.4
20260507151504 18 56 6.4 22.5 0.00 0.00 0.00 78 1011.4
20260507151216 18 52 8.0 16.1 0.00 0.00 0.00 78 1011.5
20260507150504 18 48 8.0 25.7 0.00 0.00 0.00 78 1011.3
20260507150003 18 44 9.7 33.8 0.00 0.00 0.00 78 1011.4
20260507145504 18 46 8.0 33.8 0.00 0.00 0.00 78 1011.4
20260507145004 18 62 6.4 22.5 0.00 0.00 0.00 77 1011.3
20260507144503 18 44 6.4 20.9 0.00 0.00 0.00 78 1011.1
20260507144003 18 41 8.0 33.8 0.00 0.00 0.00 77 1011.3
20260507143503 18 47 8.0 33.8 0.00 0.00 0.00 77 1011.0
20260507143003 18 53 6.4 17.7 0.00 0.00 0.00 77 1011.2
20260507142503 18 61 8.0 29.0 0.00 0.00 0.00 78 1011.3
20260507142003 18 61 6.4 29.0 0.00 0.00 0.00 77 1011.5
20260507141504 18 52 6.4 20.9 0.00 0.00 0.00 77 1011.8
20260507141003 18 58 9.7 33.8 0.00 0.00 0.00 77 1011.5
20260507140503 18 65 8.0 33.8 0.00 0.00 0.00 77 1011.5
20260507140003 18 51 9.7 38.6 0.00 0.00 0.00 76 1011.6
20260507135715 18 51 11.3 38.6 0.00 0.00 0.00 76 1011.5
20260507135003 18 44 9.7 25.7 0.00 0.00 0.00 76 1011.6
20260507134503 18 34 11.3 33.8 0.00 0.00 0.00 76 1011.9
20260507134214 18 39 11.3 33.8 0.00 0.00 0.00 75 1011.9
20260507133503 18 44 11.3 27.4 0.00 0.00 0.00 75 1011.9
20260507133004 19 37 11.3 43.5 0.00 0.00 0.00 74 1011.9
20260507132504 19 34 12.9 43.5 0.00 0.00 0.00 73 1012.0
20260507132216 18 33 14.5 43.5 0.00 0.00 0.00 73 1011.8
20260507131504 19 51 11.3 30.6 0.00 0.00 0.00 72 1011.8
20260507131004 19 48 9.7 29.0 0.00 0.00 0.00 73 1011.8
20260507130503 20 45 9.7 27.4 0.00 0.00 0.00 71 1012.1
20260507130004 20 59 9.7 25.7 0.00 0.00 0.00 70 1012.1
20260507125504 20 54 11.3 38.6 0.00 0.00 0.00 71 1012.2
20260507125214 20 53 11.3 38.6 0.00 0.00 0.00 72 1012.2
20260507124503 19 57 12.9 37.0 0.00 0.00 0.00 72 1012.6
20260507124004 19 51 12.9 46.7 0.00 0.00 0.00 72 1012.4
20260507123718 19 58 12.9 46.7 0.00 0.00 0.00 71 1012.5
20260507123004 19 51 11.3 33.8 0.00 0.00 0.00 71 1012.4
20260507122714 20 48 11.3 33.8 0.00 0.00 0.00 70 1012.6
20260507122004 20 60 9.7 30.6 0.00 0.00 0.00 69 1012.4
20260507121504 20 55 9.7 24.1 0.00 0.00 0.00 69 1012.6
20260507121004 20 57 11.3 30.6 0.00 0.00 0.00 70 1012.6
20260507120504 20 56 11.3 30.6 0.00 0.00 0.00 69 1012.5
20260507120214 20 53 11.3 30.6 0.00 0.00 0.00 69 1012.7
20260507115504 19 49 12.9 40.2 0.00 0.00 0.00 70 1012.6
20260507115004 20 61 11.3 30.6 0.00 0.00 0.00 68 1012.5
20260507114503 20 62 12.9 24.1 0.00 0.00 0.00 70 1012.6
20260507114004 20 61 11.3 40.2 0.00 0.00 0.00 67 1012.7
20260507113503 20 45 14.5 40.2 0.00 0.00 0.00 70 1012.3
20260507113004 20 44 12.9 30.6 0.00 0.00 0.00 68 1012.5
20260507112503 20 44 11.3 40.2 0.00 0.00 0.00 67 1012.5
20260507112217 20 48 12.9 40.2 0.00 0.00 0.00 68 1012.7
20260507111504 20 53 11.3 24.1 0.00 0.00 0.00 69 1012.7
20260507111003 20 59 11.3 33.8 0.00 0.00 0.00 68 1013.2
20260507110716 20 63 11.3 33.8 0.00 0.00 0.00 67 1013.0
20260507110003 20 45 11.3 48.3 0.00 0.00 0.00 68 1013.3
20260507105503 20 49 11.3 48.3 0.00 0.00 0.00 68 1013.2
20260507105003 20 62 11.3 33.8 0.00 0.00 0.00 68 1013.2
20260507104504 20 55 12.9 30.6 0.00 0.00 0.00 68 1013.3
20260507104004 20 58 12.9 43.5 0.00 0.00 0.00 65 1013.6
20260507103504 20 62 11.3 43.5 0.00 0.00 0.00 64 1013.5
20260507103004 20 64 11.3 33.8 0.00 0.00 0.00 65 1013.8
20260507102504 20 65 11.3 37.0 0.00 0.00 0.00 68 1013.7
20260507102003 20 56 11.3 37.0 0.00 0.00 0.00 65 1013.5
20260507101504 20 53 9.7 27.4 0.00 0.00 0.00 66 1013.6
20260507101004 20 57 9.7 38.6 0.00 0.00 0.00 65 1013.4
20260507100503 20 67 11.3 38.6 0.00 0.00 0.00 66 1013.6
20260507100215 20 63 11.3 30.6 0.00 0.00 0.00 65 1013.4
20260507095718 20 57 11.3 33.8 0.00 0.00 0.00 62 1013.8
20260507095216 20 53 11.3 33.8 0.00 0.00 0.00 61 1013.7
20260507094504 20 50 11.3 40.2 0.00 0.00 0.00 61 1013.7
20260507094004 20 55 12.9 40.2 0.00 0.00 0.00 63 1013.6
20260507093503 20 60 11.3 29.0 0.00 0.00 0.00 63 1013.8
20260507093003 20 59 9.7 30.6 0.00 0.00 0.00 62 1014.0
20260507092503 20 46 11.3 30.6 0.00 0.00 0.00 62 1013.7
20260507092003 20 38 11.3 24.1 0.00 0.00 0.00 64 1013.6
20260507091717 20 45 11.3 33.8 0.00 0.00 0.00 65 1013.6
20260507091214 19 50 11.3 33.8 0.00 0.00 0.00 66 1013.8
20260507090718 19 43 11.3 48.3 0.00 0.00 0.00 67 1014.0
20260507090005 19 48 11.3 48.3 0.00 0.00 0.00 67 1013.7
20260507085504 19 55 11.3 27.4 0.00 0.00 0.00 68 1013.7
20260507085003 19 55 11.3 20.9 0.00 0.00 0.00 69 1013.6
20260507084504 19 59 11.3 30.6 0.00 0.00 0.00 70 1013.7
20260507084218 19 58 11.3 30.6 0.00 0.00 0.00 70 1013.8
20260507083503 19 63 11.3 33.8 0.00 0.00 0.00 70 1013.9
20260507083004 19 49 11.3 33.8 0.00 0.00 0.00 70 1013.7
20260507082503 19 42 9.7 30.6 0.00 0.00 0.00 69 1013.4
20260507082003 19 49 9.7 43.5 0.00 0.00 0.00 67 1013.5
20260507081717 19 51 11.3 43.5 0.00 0.00 0.00 69 1013.4
20260507081004 19 51 9.7 30.6 0.00 0.00 0.00 70 1013.3
20260507080503 19 50 9.7 25.7 0.00 0.00 0.00 69 1013.6
20260507080216 19 52 8.0 24.1 0.00 0.00 0.00 68 1013.3
20260507075504 19 67 8.0 35.4 0.00 0.00 0.00 70 1013.8
20260507075004 19 56 8.0 30.6 0.00 0.00 0.00 71 1013.7
20260507074715 19 67 8.0 30.6 0.00 0.00 0.00 72 1013.6
20260507074003 19 74 11.3 30.6 0.00 0.00 0.00 72 1013.7
20260507073503 18 60 9.7 27.4 0.00 0.00 0.00 72 1013.9
20260507073004 18 38 9.7 27.4 0.00 0.00 0.00 73 1013.8
20260507072503 19 44 8.0 27.4 0.00 0.00 0.00 71 1013.9
20260507072004 18 69 9.7 37.0 0.00 0.00 0.00 73 1013.7
20260507071504 18 76 9.7 37.0 0.00 0.00 0.00 74 1013.9
20260507071004 18 74 9.7 29.0 0.00 0.00 0.00 72 1013.9
20260507070714 18 65 8.0 14.5 0.00 0.00 0.00 73 1013.9
20260507070217 18 48 8.0 30.6 0.00 0.00 0.00 73 1014.2
20260507065503 18 47 6.4 27.4 0.00 0.00 0.00 75 1013.9
20260507065213 18 50 6.4 27.4 0.00 0.00 0.00 74 1014.3
20260507064716 18 45 8.0 27.4 0.00 0.00 0.00 76 1014.1
20260507064213 18 63 8.0 16.1 0.00 0.00 0.00 79 1014.3
20260507063503 18 59 9.7 30.6 0.00 0.00 0.00 80 1014.2
20260507063003 17 60 9.7 29.0 0.00 0.00 0.00 82 1014.1
20260507062504 17 72 8.0 27.4 0.00 0.00 0.00 82 1014.2
20260507062003 17 73 8.0 22.5 0.00 0.00 0.00 83 1014.3
20260507061503 17 69 6.4 25.7 0.00 0.00 0.00 84 1014.1
20260507061217 17 71 6.4 25.7 0.00 0.00 0.00 84 1014.1
20260507060714 17 66 6.4 14.5 0.00 0.00 0.00 85 1014.1
20260507060004 17 69 8.0 29.0 0.00 0.00 0.00 86 1014.3
20260507055503 17 67 8.0 29.0 0.00 0.00 0.00 85 1014.4
20260507055213 17 69 6.4 25.7 0.00 0.00 0.00 85 1014.4
20260507054716 17 71 6.4 22.5 0.00 0.00 0.00 86 1014.4
20260507054004 17 82 6.4 22.5 0.00 0.00 0.00 85 1014.3
20260507053503 17 78 4.8 17.7 0.00 0.00 0.00 84 1014.2
20260507053004 17 67 4.8 17.7 0.00 0.00 0.00 84 1014.4
20260507052503 17 51 6.4 17.7 0.00 0.00 0.00 84 1014.2
20260507052004 17 45 6.4 17.7 0.00 0.00 0.00 83 1014.1
20260507051503 17 61 6.4 11.3 0.00 0.00 0.00 83 1014.1
20260507051003 16 61 6.4 20.9 0.00 0.00 0.00 83 1014.1
20260507050503 17 53 6.4 20.9 0.00 0.00 0.00 85 1014.2
20260507050003 16 58 4.8 16.1 0.00 0.00 0.00 84 1014.3
20260507045503 16 58 4.8 16.1 0.00 0.00 0.00 84 1014.1
20260507045003 16 45 4.8 11.3 0.00 0.00 0.00 84 1013.8
20260507044504 16 55 6.4 20.9 0.00 0.00 0.00 84 1014.0
20260507044004 16 74 4.8 20.9 0.00 0.00 0.00 84 1014.1
20260507043503 16 69 4.8 14.5 0.00 0.00 0.00 84 1014.1
20260507043004 16 59 3.2 11.3 0.00 0.00 0.00 84 1014.0
20260507042503 16 67 3.2 14.5 0.00 0.00 0.00 84 1014.1
20260507042003 16 76 3.2 14.5 0.00 0.00 0.00 83 1014.1
20260507041503 16 70 3.2 11.3 0.00 0.00 0.00 82 1013.9
20260507041003 16 56 1.6 6.4 0.00 0.00 0.00 80 1014.0
20260507040503 16 57 3.2 12.9 0.00 0.00 0.00 78 1014.0
20260507040003 17 62 1.6 12.9 0.00 0.00 0.00 77 1014.0
20260507035504 16 56 1.6 11.3 0.00 0.00 0.00 79 1014.2
20260507035004 17 43 1.6 9.7 0.00 0.00 0.00 78 1014.2
20260507034718 17 39 1.6 9.7 0.00 0.00 0.00 77 1014.5
20260507034003 17 43 1.6 6.4 0.00 0.00 0.00 74 1014.4
20260507033503 16 67 1.6 6.4 0.00 0.00 0.00 79 1014.3
20260507033004 17 91 1.6 6.4 0.00 0.00 0.00 78 1014.5
20260507032503 17 107 1.6 4.8 0.00 0.00 0.00 78 1014.6
20260507032004 17 50 1.6 9.7 0.00 0.00 0.00 76 1014.5
20260507031504 17 44 1.6 9.7 0.00 0.00 0.00 75 1014.5
20260507031004 17 68 1.6 4.8 0.00 0.00 0.00 74 1014.4
20260507030503 17 50 1.6 11.3 0.00 0.00 0.00 73 1014.5
20260507030003 17 39 1.6 11.3 0.00 0.00 0.00 72 1014.6
20260507025503 17 40 0.0 3.2 0.00 0.00 0.00 70 1014.7
20260507025004 17 45 1.6 9.7 0.00 0.00 0.00 68 1014.6
20260507024503 17 39 1.6 9.7 0.00 0.00 0.00 65 1014.5
20260507024003 17 37 1.6 9.7 0.00 0.00 0.00 64 1014.4
20260507023504 17 75 1.6 4.8 0.00 0.00 0.00 63 1014.1
20260507023004 17 88 1.6 4.8 0.00 0.00 0.00 63 1014.3
20260507022503 17 92 1.6 3.2 0.00 0.00 0.00 64 1014.3
20260507022003 17 75 1.6 9.7 0.00 0.00 0.00 63 1014.0
20260507021504 17 63 1.6 9.7 0.00 0.00 0.00 62 1014.0
20260507021004 17 73 1.6 6.4 0.00 0.00 0.00 60 1013.9
20260507020503 17 91 1.6 3.2 0.00 0.00 0.00 61 1014.0
20260507020004 17 88 1.6 9.7 0.00 0.00 0.00 64 1014.0
20260507015713 17 85 1.6 9.7 0.00 0.00 0.00 63 1014.1